Location: Tel Aviv
(32.0670°N, 34.7670°E)
Time: 08:14:03
(UTC+02:00)

Transit 2A Rocket - All Passes

Search period start: 29 November 2023 00:00
Search period end: 09 December 2023 00:00
Orbit: 593 x 903 km, 66.7° (Epoch: 28 November)

Date Brightness Start Highest point End Pass type
(mag) Time Alt. Az. Time Alt. Az. Time Alt. Az.
29 Nov - 06:44:30 10° N 06:47:53 21° ENE 06:51:24 10° ESE daylight
29 Nov - 08:26:26 10° NW 08:30:16 29° WSW 08:34:18 10° S daylight
29 Nov - 21:12:55 10° S 21:17:46 48° ESE 21:22:14 10° NE night (unlit)
29 Nov - 22:57:33 10° W 23:00:21 15° NW 23:03:04 10° NNW night (unlit)
30 Nov - 06:02:45 10° NE 06:04:00 11° NE 06:05:17 10° ENE daylight
30 Nov - 07:42:22 10° NNW 07:46:44 61° WSW 07:51:22 10° SSE daylight
30 Nov - 20:30:15 10° SSE 20:34:15 24° ESE 20:38:00 10° NE night (unlit)
30 Nov - 22:12:19 10° WSW 22:16:33 28° WNW 22:20:31 10° N night (unlit)
01 Dec - 06:58:46 10° NNW 07:03:08 62° ENE 07:07:46 10° SE daylight
01 Dec - 19:49:07 10° SE 19:50:48 12° ESE 19:52:26 10° E night (unlit)
01 Dec - 21:27:58 10° SW 21:32:51 56° WNW 21:37:22 10° NNE night (unlit)
02 Dec - 06:15:33 10° N 06:19:27 30° ENE 06:23:32 10° ESE daylight
02 Dec - 07:58:25 10° WNW 08:01:41 20° WSW 08:05:06 10° SSW daylight
02 Dec - 20:44:16 10° SSW 20:49:14 71° ESE 20:53:49 10° NNE night (unlit)
02 Dec - 22:30:55 10° WNW 22:32:01 11° NW 22:33:05 10° NW night (unlit)
03 Dec - 05:32:56 10° NNE 05:35:39 16° NE 05:38:26 10° E visible
03 Dec - 07:14:00 10° NW 07:18:11 41° WSW 07:22:38 10° S daylight
03 Dec - 20:01:11 10° S 20:05:41 34° ESE 20:09:51 10° NE night (unlit)
03 Dec - 21:44:31 10° WSW 21:48:07 20° WNW 21:51:32 10° N night (unlit)
04 Dec - 06:30:10 10° NNW 06:34:37 89° SW 06:39:21 10° SSE daylight
04 Dec - 19:19:02 10° SSE 19:22:11 17° ESE 19:25:11 10° ENE night (unlit)
04 Dec - 20:59:47 10° SW 21:04:22 39° WNW 21:08:38 10° N night (unlit)
05 Dec - 05:46:45 10° N 05:50:58 43° ENE 05:55:27 10° SE visible
05 Dec - 07:30:45 10° WNW 07:33:04 14° WSW 07:35:27 10° SW daylight
05 Dec - 20:15:45 10° SSW 20:20:42 80° WNW 20:25:16 10° NNE night (unlit)
06 Dec - 05:03:45 10° N 05:07:14 22° ENE 05:10:50 10° ESE visible
06 Dec - 06:45:45 10° NW 06:49:36 28° WSW 06:53:40 10° S daylight
06 Dec - 19:32:20 10° S 19:37:06 49° ESE 19:41:32 10° NE visible
06 Dec - 21:17:03 10° W 21:19:43 15° NW 21:22:16 10° NNW night (unlit)
07 Dec - 04:21:50 10° NNE 04:23:21 11° NE 04:24:53 10° ENE visible
07 Dec - 06:01:39 10° NNW 06:06:03 60° WSW 06:10:45 10° SSE visible
07 Dec - 18:49:38 10° SSE 18:53:34 24° ESE 18:57:17 10° NE visible
07 Dec - 20:31:45 10° WSW 20:35:52 27° WNW 20:39:46 10° N night (unlit)
08 Dec - 05:18:02 10° NNW 05:22:26 64° ENE 05:27:10 10° SE visible
08 Dec - 18:08:28 10° SE 18:10:06 12° ESE 18:11:43 10° E visible
08 Dec - 19:47:22 10° SW 19:52:10 55° WNW 19:56:37 10° NNE visible
